When you browse on this site, cookies collect data to enhance your experience and personalize the content and advertising you see.
Visit our Privacy Policy to learn more. By continuing to use the site, you agree to this use of cookies and data.
  • In Österreich
  • Länderverzeichnis
  • Für 7 Tage
  • Wassertemperatur
  • Satellitenkarten
  • Wetterkarte
  • News
  • Widgets
  • user-avatar
    Anmelden

    Stündliche Wetter Orlowce

    Heute, 18 Januar, Freitag

    Zeit Temperatur Niederschläge Wind Luftdruck Luftfeuchtigkeit
    00:00 +2°C° 0.2 mm 6 m/S 748 mmHg 79%
    01:00 +1°C° 0 mm 6 m/S 748 mmHg 77%
    02:00 +1°C° 0.5 mm 6 m/S 749 mmHg 79%
    03:00 0°C° 0.5 mm 5 m/S 749 mmHg 81%
    04:00 0°C° 0.5 mm 5 m/S 750 mmHg 83%
    05:00 0°C° 0.2 mm 5 m/S 751 mmHg 82%
    06:00 -1°C° 0.2 mm 5 m/S 752 mmHg 81%
    07:00 -2°C° 0 mm 5 m/S 754 mmHg 79%
    08:00 -2°C° 0.1 mm 5 m/S 755 mmHg 77%
    09:00 -2°C° 0.1 mm 5 m/S 756 mmHg 75%
    10:00 -2°C° 0.1 mm 5 m/S 757 mmHg 73%
    11:00 -2°C° 0 mm 5 m/S 757 mmHg 72%
    12:00 -1°C° 0 mm 5 m/S 758 mmHg 71%
    13:00 -1°C° 0 mm 4 m/S 759 mmHg 68%
    14:00 -2°C° 0 mm 4 m/S 759 mmHg 71%
    15:00 -1°C° 0 mm 3 m/S 760 mmHg 74%
    16:00 -1°C° 0 mm 2 m/S 760 mmHg 77%
    17:00 -2°C° 0 mm 2 m/S 760 mmHg 79%
    18:00 -2°C° 0 mm 3 m/S 760 mmHg 80%
    19:00 -2°C° 0 mm 3 m/S 761 mmHg 81%
    20:00 -2°C° 0 mm 3 m/S 761 mmHg 82%
    21:00 -2°C° 0 mm 3 m/S 761 mmHg 83%
    22:00 -2°C° 0 mm 3 m/S 761 mmHg 84%
    23:00 -2°C° 0 mm 3 m/S 761 mmHg 86%

    Morgen, 19 Januar, Samstag

    Zeit Temperatur Niederschläge Wind Luftdruck Luftfeuchtigkeit
    00:00 -2°C° 0 mm 3 m/S 762 mmHg 88%
    01:00 -2°C° 0 mm 3 m/S 762 mmHg 91%
    02:00 -3°C° 0 mm 2 m/S 762 mmHg 92%
    03:00 -3°C° 0 mm 2 m/S 762 mmHg 93%
    04:00 -3°C° 0 mm 2 m/S 762 mmHg 94%
    05:00 -3°C° 0 mm 2 m/S 762 mmHg 93%
    06:00 -3°C° 0 mm 2 m/S 762 mmHg 93%
    07:00 -3°C° 0 mm 2 m/S 762 mmHg 93%
    08:00 -2°C° 0 mm 2 m/S 762 mmHg 90%
    09:00 0°C° 0 mm 1 m/S 763 mmHg 87%
    10:00 +1°C° 0 mm 1 m/S 763 mmHg 84%
    11:00 +2°C° 0 mm 1 m/S 763 mmHg 79%
    12:00 +2°C° 0 mm 1 m/S 763 mmHg 74%
    13:00 +3°C° 0 mm 1 m/S 762 mmHg 69%
    14:00 +3°C° 0 mm 1 m/S 762 mmHg 73%
    15:00 +2°C° 0 mm 1 m/S 762 mmHg 76%
    16:00 +1°C° 0 mm 1 m/S 762 mmHg 80%
    17:00 +1°C° 0 mm 1 m/S 762 mmHg 81%
    18:00 0°C° 0 mm 1 m/S 762 mmHg 83%
    19:00 0°C° 0 mm 1 m/S 762 mmHg 84%
    20:00 0°C° 0 mm 1 m/S 762 mmHg 84%
    21:00 0°C° 0 mm 1 m/S 762 mmHg 84%
    22:00 0°C° 0 mm 1 m/S 762 mmHg 84%
    23:00 0°C° 0 mm 1 m/S 762 mmHg 84%

    übermorgen, 20 Januar, Sonntag

    Zeit Temperatur Niederschläge Wind Luftdruck Luftfeuchtigkeit
    00:00 0°C° 0 mm 1 m/S 761 mmHg 84%
    01:00 -1°C° 0 mm 1 m/S 761 mmHg 83%
    02:00 -1°C° 0 mm 1 m/S 761 mmHg 83%
    03:00 -1°C° 0 mm 1 m/S 761 mmHg 82%
    04:00 -2°C° 0 mm 0 m/S 761 mmHg 82%
    05:00 -2°C° 0 mm 0 m/S 761 mmHg 82%
    06:00 -2°C° 0 mm 0 m/S 761 mmHg 81%
    07:00 -2°C° 0 mm 0 m/S 761 mmHg 81%
    08:00 -2°C° 0 mm 0 m/S 761 mmHg 78%
    09:00 -1°C° 0 mm 0 m/S 761 mmHg 75%
    10:00 -1°C° 0 mm 0 m/S 761 mmHg 72%
    11:00 0°C° 0 mm 0 m/S 761 mmHg 68%
    12:00 +1°C° 0 mm 0 m/S 761 mmHg 65%
    13:00 +1°C° 0 mm 0 m/S 761 mmHg 61%
    14:00 +1°C° 0 mm 0 m/S 761 mmHg 66%
    15:00 +1°C° 0 mm 1 m/S 761 mmHg 70%
    16:00 0°C° 0 mm 1 m/S 762 mmHg 75%
    17:00 0°C° 0 mm 1 m/S 762 mmHg 77%
    18:00 -1°C° 0 mm 1 m/S 762 mmHg 80%
    19:00 -1°C° 0 mm 1 m/S 763 mmHg 83%
    20:00 -1°C° 0 mm 1 m/S 763 mmHg 83%
    21:00 -1°C° 0 mm 1 m/S 763 mmHg 83%
    22:00 -1°C° 0 mm 1 m/S 764 mmHg 84%
    23:00 -1°C° 0 mm 1 m/S 764 mmHg 84%

    21 Januar, Montag

    Zeit Temperatur Niederschläge Wind Luftdruck Luftfeuchtigkeit
    00:00 -1°C° 0 mm 1 m/S 764 mmHg 84%
    01:00 -1°C° 0 mm 1 m/S 764 mmHg 84%
    02:00 -1°C° 0 mm 1 m/S 764 mmHg 84%
    03:00 -1°C° 0 mm 1 m/S 764 mmHg 84%
    04:00 -1°C° 0 mm 1 m/S 764 mmHg 84%
    05:00 -1°C° 0 mm 1 m/S 764 mmHg 84%
    06:00 -1°C° 0 mm 1 m/S 765 mmHg 84%
    07:00 -1°C° 0 mm 1 m/S 765 mmHg 84%
    08:00 -1°C° 0 mm 1 m/S 765 mmHg 82%
    09:00 -2°C° 0 mm 2 m/S 765 mmHg 79%
    10:00 -2°C° 0 mm 2 m/S 765 mmHg 76%
    11:00 -1°C° 0 mm 2 m/S 765 mmHg 72%
    12:00 -1°C° 0 mm 2 m/S 764 mmHg 69%
    13:00 0°C° 0 mm 3 m/S 764 mmHg 66%
    14:00 -1°C° 0 mm 3 m/S 764 mmHg 68%
    15:00 -1°C° 0 mm 2 m/S 764 mmHg 69%
    16:00 -2°C° 0 mm 2 m/S 763 mmHg 71%
    17:00 -2°C° 0 mm 2 m/S 763 mmHg 71%
    18:00 -2°C° 0 mm 2 m/S 763 mmHg 72%
    19:00 -4°C° 0 mm 3 m/S 763 mmHg 72%
    20:00 -4°C° 0 mm 3 m/S 762 mmHg 71%
    21:00 -4°C° 0 mm 3 m/S 762 mmHg 69%
    22:00 -4°C° 0 mm 3 m/S 762 mmHg 68%
    23:00 -4°C° 0 mm 3 m/S 761 mmHg 67%

    22 Januar, Dienstag

    Zeit Temperatur Niederschläge Wind Luftdruck Luftfeuchtigkeit
    00:00 -4°C° 0 mm 3 m/S 761 mmHg 66%
    01:00 -4°C° 0 mm 3 m/S 761 mmHg 65%
    02:00 -4°C° 0 mm 3 m/S 760 mmHg 65%
    03:00 -5°C° 0 mm 3 m/S 759 mmHg 65%
    04:00 -4°C° 0 mm 2 m/S 759 mmHg 65%
    05:00 -4°C° 0 mm 2 m/S 758 mmHg 67%
    06:00 -4°C° 0 mm 2 m/S 758 mmHg 69%
    07:00 -4°C° 0 mm 2 m/S 757 mmHg 70%
    08:00 -4°C° 0 mm 2 m/S 757 mmHg 68%
    09:00 -4°C° 0 mm 3 m/S 757 mmHg 66%
    10:00 -4°C° 0 mm 3 m/S 756 mmHg 64%
    11:00 -2°C° 0 mm 3 m/S 756 mmHg 60%
    12:00 -1°C° 0 mm 3 m/S 755 mmHg 57%
    13:00 -1°C° 0 mm 3 m/S 754 mmHg 53%
    14:00 -1°C° 0 mm 3 m/S 754 mmHg 54%
    15:00 -1°C° 0 mm 3 m/S 753 mmHg 54%
    16:00 -2°C° 0 mm 3 m/S 752 mmHg 55%
    17:00 -2°C° 0 mm 3 m/S 752 mmHg 55%
    18:00 -2°C° 0 mm 3 m/S 751 mmHg 55%
    19:00 -4°C° 0 mm 3 m/S 751 mmHg 55%
    20:00 -4°C° 0 mm 3 m/S 751 mmHg 57%
    21:00 -4°C° 0 mm 3 m/S 750 mmHg 59%
    22:00 -4°C° 0 mm 3 m/S 750 mmHg 62%
    23:00 -5°C° 0 mm 3 m/S 750 mmHg 63%

    23 Januar, Mittwoch

    Zeit Temperatur Niederschläge Wind Luftdruck Luftfeuchtigkeit
    00:00 -5°C° 0 mm 3 m/S 749 mmHg 64%
    01:00 -4°C° 0 mm 2 m/S 749 mmHg 65%
    02:00 -5°C° 0 mm 3 m/S 748 mmHg 67%
    03:00 -5°C° 0 mm 3 m/S 748 mmHg 69%
    04:00 -6°C° 0 mm 3 m/S 747 mmHg 70%
    05:00 -6°C° 0 mm 3 m/S 747 mmHg 73%
    06:00 -6°C° 0 mm 3 m/S 747 mmHg 75%
    07:00 -6°C° 0 mm 3 m/S 747 mmHg 78%
    08:00 -5°C° 0 mm 3 m/S 747 mmHg 76%
    09:00 -5°C° 0 mm 3 m/S 746 mmHg 74%
    10:00 -5°C° 0 mm 3 m/S 746 mmHg 72%
    11:00 -4°C° 0 mm 3 m/S 746 mmHg 70%
    12:00 -2°C° 0 mm 3 m/S 746 mmHg 69%
    13:00 -1°C° 0 mm 3 m/S 746 mmHg 67%
    14:00 -2°C° 0 mm 3 m/S 746 mmHg 69%
    15:00 -2°C° 0 mm 3 m/S 746 mmHg 72%
    16:00 -2°C° 0 mm 3 m/S 745 mmHg 75%
    17:00 -4°C° 0 mm 3 m/S 746 mmHg 77%
    18:00 -4°C° 0 mm 3 m/S 746 mmHg 79%
    19:00 -4°C° 0 mm 3 m/S 746 mmHg 81%
    20:00 -4°C° 0 mm 3 m/S 746 mmHg 83%
    21:00 -4°C° 0 mm 3 m/S 746 mmHg 85%
    22:00 -4°C° 0 mm 3 m/S 746 mmHg 88%
    23:00 -4°C° 0 mm 3 m/S 746 mmHg 86%
    Mehr zeigen